This demonstration page uses our WeatherBlox Daily Observations layout. Learn more.

Left ArrowRight Arrow

Hourly Observations for April 24, 2018

Temp ( °F °C ) Dew Point ( °F °C ) Humidity (%) Winds ( mph kmh ) Pressure ( in mb ) Visibility ( mi km ) Precip ( " mm )
12:53 am 00:53 Clear 58 14.4 44 6.7 60 60 NW 7 11 29.93 1014 10 16 0.00 0.00
1:53 am 01:53 Clear 55 12.8 45 7.2 69 69 NE 3 6 29.94 1014 10 16 0.00 0.00
2:53 am 02:53 Clear 55 12.8 45 7.2 69 69 VRB 3 6 29.93 1014 10 16 0.00 0.00
3:53 am 03:53 Clear 54 12.2 45 7.2 72 72 Calm 29.94 1014 10 16 0.00 0.00
4:53 am 04:53 Clear 52 11.1 44 6.7 75 75 Calm 29.93 1014 10 16 0.00 0.00
5:53 am 05:53 Clear 50 10 45 7.2 83 83 Calm 29.94 1014 10 16 0.00 0.00
6:53 am 06:53 Sunny 51 10.6 44 6.7 77 77 Calm 29.95 1014 10 16 0.00 0.00
7:53 am 07:53 Sunny 57 13.9 46 7.8 67 67 Calm 29.97 1015 10 16 0.00 0.00
8:53 am 08:53 Sunny 63 17.2 48 8.9 58 58 Calm 29.96 1015 10 16 0.00 0.00
9:53 am 09:53 Sunny 76 24.4 34 1.1 22 22 N 8 13 29.96 1015 10 16 0.00 0.00
10:53 am 10:53 Sunny 79 26.1 34 1.1 20 20 NNE 7 11 29.96 1015 10 16 0.00 0.00
11:53 am 11:53 Sunny 81 27.2 34 1.1 18 18 NNW 5 7 29.96 1015 10 16 0.00 0.00
12:53 pm 12:53 Sunny 83 28.3 35 1.7 18 18 VRB 5 7 29.94 1014 10 16 0.00 0.00
1:53 pm 13:53 Sunny 86 30 37 2.8 18 18 Calm 29.93 1013 10 16 0.00 0.00
2:53 pm 14:53 Sunny 85 29.4 37 2.8 18 18 VRB 5 7 29.92 1013 9 14 0.00 0.00
3:53 pm 15:53 Sunny 85 29.4 39 3.9 20 20 VRB 5 7 29.90 1013 10 16 0.00 0.00
4:53 pm 16:53 Sunny 84 28.9 40 4.4 21 21 SE 6 9 29.89 1012 10 16 0.00 0.00
5:53 pm 17:53 Sunny 85 29.4 43 6.1 23 23 SE 5 7 29.89 1012 10 16 0.00 0.00
6:53 pm 18:53 Sunny 81 27.2 40 4.4 23 23 SSW 3 6 29.88 1012 10 16 0.00 0.00
7:53 pm 19:53 Sunny 76 24.4 53 11.7 45 45 Calm 29.89 1012 10 16 0.00 0.00
8:53 pm 20:53 Clear 70 21.1 56 13.3 61 61 Calm 29.91 1013 10 16 0.00 0.00
9:53 pm 21:53 Clear 69 20.6 49 9.4 49 49 N 5 7 29.93 1013 10 16 0.00 0.00
10:53 pm 22:53 Clear 63 17.2 51 10.6 65 65 Calm 29.94 1014 10 16 0.00 0.00
11:53 pm 23:53 Clear 63 17.2 50 10 63 63 NNW 3 6 29.95 1014 10 16 0.00 0.00

Powered by AerisWeather